Dewpoint
25 30 29 32 42 31 28 28 34 31 36 32 36 40 49 49 49 49 51 53 49 52 55 56 54 54 57 59 59 59 59 62 61 57 56 58 57 60 60 59 58 58 57 56
21 22 24 21 21 23 30 32 34 33 37 32 38 36 46 48 48 48 49 49 48 51 55 56 54 56 56 60 59 59 59 61 60 61 62 61 61 60 60 60 60 59 58 57
21 19 22 22 22 30 28 29 29 27 29 35 39 36 40 46 48 47 48 50 48 50 54 56 55 57 57 60 60 59 59 60 61 62 62 61 63 63 59 58 57 59 58 56
18 17 22 22 28 28 30 30 28 31 33 39 44 29 43 45 46 46 47 47 49 50 53 55 55 56 57 58 58 58 59 59 59 62 63 63 60 57 60 59 60 61 57 57
19 19 21 23 30 28 25 26 35 37 39 46 46 40 41 45 45 46 47 46 46 47 50 53 53 55 55 56 55 58 60 60 60 61 62 59 60 57 58 58 61 62 61 58
17 22 24 24 28 27 27 33 39 41 40 44 44 40 38 42 36 34 46 46 45 45 47 52 51 54 54 54 52 56 59 60 60 60 60 62 61 60 59 60 58 57 58 58
21 17 21 28 26 32 32 36 33 37 33 37 36 31 34 31 30 31 36 44 44 44 46 49 49 51 52 54 55 53 57 59 59 58 59 59 61 61 61 59 57 58 56 57
19 20 29 30 28 28 31 33 33 30 26 28 34 32 37 36 38 37 36 38 44 44 43 49 50 52 51 54 56 54 56 57 58 58 59 60 61 59 60 60 59 58 57 57
24 30 35 29 29 26 34 34 33 34 32 28 27 36 42 39 38 39 38 39 42 46 47 50 51 52 53 56 58 55 55 57 57 58 60 60 60 60 60 60 61 59 59 55
29 31 33 32 29 26 26 29 32 36 35 33 32 32 36 39 35 38 40 42 42 46 46 46 51 55 55 56 58 57 54 55 56 56 57 58 59 59 59 60 60 60 60 59
27 36 30 33 31 32 35 35 43 43 37 32 24 30 40 41 42 42 39 42 44 44 45 46 52 56 56 54 52 55 52 53 53 55 57 58 59 59 59 59 59 59 60 60
29 41 33 28 31 31 32 34 39 36 38 38 32 31 41 49 44 50 43 43 40 43 44 46 51 54 55 53 53 55 55 49 51 55 57 58 59 59 60 60 59 60 59 60
40 41 31 29 29 36 36 35 37 44 49 43 37 33 40 46 49 53 53 51 40 42 44 44 49 52 54 55 57 54 53 50 51 53 52 57 59 60 61 61 61 60 59 59
51 47 39 28 31 29 31 33 31 39 39 38 27 29 43 49 52 53 54 52 39 43 46 46 47 51 53 56 57 56 55 51 52 52 52 57 59 61 61 61 61 60 59 59
43 38 33 29 25 26 29 29 30 31 35 35 29 26 45 49 49 49 51 46 43 42 44 47 50 52 52 56 57 57 56 54 55 52 52 57 59 59 59 60 60 60 60 58
52 40 35 32 27 28 29 29 28 25 27 25 26 29 36 48 50 48 57 57 46 45 45 50 49 54 54 56 55 57 57 56 56 55 52 54 55 56 58 60 59 60 60 59
49 45 43 35 29 29 30 30 27 28 27 30 32 36 41 42 46 45 43 44 43 45 46 49 52 56 60 58 58 57 58 58 58 54 52 52 55 54 57 57 58 59 61 62
51 52 43 34 36 27 27 33 32 32 32 33 35 38 41 46 48 44 42 41 44 46 51 53 55 59 61 59 58 58 55 57 55 55 51 50 52 53 55 58 59 61 62 61
49 50 39 36 31 33 31 36 35 33 36 43 42 41 39 43 48 48 47 45 47 49 52 54 56 59 61 59 57 57 54 53 50 51 50 49 50 54 56 58 60 62 62 61
41 52 43 37 33 31 43 46 50 50 36 45 41 42 43 42 40 43 47 49 50 51 53 54 56 58 61 60 59 57 53 51 50 50 51 52 54 57 57 60 61 61 60 59
47 47 41 35 32 32 47 49 50 45 49 47 45 47 48 48 49 55 51 51 51 52 52 54 56 58 61 60 59 54 53 52 52 52 52 53 54 60 61 60 60 60 59 59
40 41 41 46 43 40 51 46 48 53 59 48 49 52 49 52 48 46 50 51 50 50 48 49 55 58 60 58 56 52 54 56 54 55 55 55 59 58 53 61 61 61 61 60
42 48 50 45 45 58 56 53 53 59 52 51 54 51 49 47 44 45 49 53 52 49 48 48 55 57 58 57 55 55 57 57 58 59 60 60 61 61 62 62 62 60 61 60
46 51 46 50 50 55 54 53 53 50 52 53 51 49 48 47 44 47 49 55 54 51 51 48 50 55 56 55 58 60 58 61 60 61 62 62 63 61 63 61 62 61 60 60
36 48 49 49 44 47 56 52 58 55 52 50 48 47 47 49 50 50 52 53 53 53 54 54 54 57 58 60 62 63 60 61 61 62 62 62 62 62 60 62 60 56 58 52
41 49 39 44 52 55 57 57 58 53 48 47 47 45 48 47 48 48 57 57 56 56 58 58 59 59 58 59 58 56 57 56 57 55 53 50 49 48 46 47 50 46 43 42
Lifted_Index
-0 -0 -0 -1 -1 -1 -0 0 0 -0 0 1 -0 -2 -2 -2 -1 -1 -0 -0 0 0 0 1 2 2 2 3 4 4 5 5 4 4 4 4 4 3 4 4 4 4 5 5
-1 -1 -0 -0 -0 -0 0 0 0 -0 0 0 -0 -1 -2 -2 -1 -0 -0 0 0 0 0 0 1 2 2 2 3 4 5 5 4 4 3 3 3 3 3 4 4 4 5 5
-1 -1 -0 0 0 0 0 0 -0 -0 -0 0 -0 -1 -2 -2 -1 -1 -0 -0 0 0 -0 -0 0 1 1 2 3 4 4 5 4 4 3 2 2 3 3 4 4 4 5 5
-1 -0 -0 -0 -0 -0 0 0 -0 -1 -1 -0 -0 -1 -2 -2 -1 -1 -1 -1 -0 -0 -0 -1 -0 0 1 1 2 3 4 5 4 4 3 2 2 3 3 3 3 4 4 5
-1 -0 -0 -0 -0 0 0 -0 -0 -1 -1 -0 -0 -1 -2 -2 -1 -1 -1 -1 -1 -0 -1 -1 -0 0 1 1 2 3 4 4 4 4 3 3 3 3 3 3 3 3 4 4
-0 -0 -0 0 0 0 0 -0 -1 -1 -1 -1 -1 -1 -2 -1 -0 -0 -1 -1 -1 -0 -0 -0 -0 0 0 1 2 3 3 4 4 4 4 4 3 3 2 2 3 3 4 4
-1 -0 -0 1 1 0 -0 -1 -1 -1 -1 -1 -1 -1 -1 -0 0 1 0 -1 -1 -0 -0 -0 -0 0 0 1 2 3 3 3 4 4 4 4 3 3 2 2 2 3 3 3
-1 -0 -0 0 0 -0 -0 -1 -1 -1 -1 -1 -0 -0 -0 -0 0 1 0 -0 -1 -1 -1 -1 -1 -0 0 1 1 2 3 3 4 4 4 4 3 3 2 2 2 2 3 3
-1 -0 -0 0 -0 -0 -0 -0 -0 -0 -0 -0 -0 -0 -0 -0 -0 -0 -0 -0 -1 -1 -1 -1 -1 -1 -0 0 1 2 3 3 3 4 4 3 3 3 3 2 2 2 2 3
-1 -0 -0 -0 -0 -0 -0 -0 -0 -0 -0 -0 -0 -0 -0 -1 -1 -1 -1 -1 -1 -1 -2 -2 -2 -1 -1 -0 0 1 2 3 3 3 3 3 3 3 3 2 2 2 2 2
-0 -0 -0 -0 -0 0 0 -0 -1 -0 -0 -0 -0 -0 -0 -1 -1 -1 -1 -2 -2 -2 -2 -2 -2 -2 -1 -1 -0 1 2 3 3 3 3 3 3 3 3 2 2 2 2 2
-0 0 0 0 -0 0 0 -1 -1 -1 -0 -0 -1 -0 -0 -1 -1 -1 -1 -2 -2 -2 -2 -3 -3 -2 -2 -1 -0 0 2 3 3 3 3 3 3 2 2 2 1 1 1 2
0 0 1 1 0 -0 -0 -0 -0 -0 -0 -0 -0 -1 -1 -1 -1 -1 -1 -1 -1 -2 -2 -2 -2 -2 -2 -1 -1 0 1 2 3 3 3 3 2 2 2 1 1 1 1 1
1 1 1 1 0 -0 -0 -0 -0 -0 -0 -0 -0 -1 -1 -1 -1 -0 -1 -1 -1 -2 -2 -2 -2 -2 -2 -2 -1 -0 1 2 3 3 3 3 2 2 1 1 1 1 1 1
1 1 1 1 0 0 0 -0 -0 -0 -0 -0 -0 -1 -1 -1 -1 -0 -1 -1 -1 -2 -2 -3 -3 -3 -3 -2 -2 -1 0 1 2 3 3 3 2 2 1 1 0 0 1 1
-0 -0 0 0 0 0 0 0 -0 -0 0 0 0 -0 -1 -1 -1 -1 -1 -1 -1 -2 -2 -3 -3 -3 -3 -2 -2 -1 -0 1 2 2 3 2 2 2 1 1 0 0 0 0
-1 -1 -1 -0 -0 -0 0 0 -0 0 0 0 0 -1 -1 -2 -1 -1 -1 -1 -1 -1 -2 -3 -3 -4 -3 -2 -2 -1 -1 0 1 2 2 2 2 2 1 1 0 -0 -1 -1
-2 -2 -1 -1 -0 -0 -0 -0 -0 -0 -0 -0 -1 -1 -2 -2 -2 -1 -1 -0 -0 -0 -1 -2 -3 -4 -3 -2 -2 -1 -1 0 1 2 2 2 2 1 1 0 -0 -1 -2 -2
-2 -2 -1 -1 -1 -1 -1 -1 -0 -0 -1 -1 -1 -1 -2 -2 -2 -1 -0 -0 -0 -0 -1 -2 -3 -3 -3 -2 -2 -1 -1 0 1 2 2 2 2 1 1 -0 -1 -2 -2 -3
-1 -1 -1 -1 -1 -1 -1 -1 -0 -1 -1 -2 -1 -1 -2 -2 -2 -1 -1 -1 -1 -1 -1 -2 -2 -3 -3 -2 -2 -1 -0 1 2 2 2 2 1 0 -0 -1 -1 -2 -3 -3
-1 -2 -2 -1 -1 -1 -1 -1 -0 -1 -2 -2 -2 -2 -2 -2 -2 -1 -2 -2 -1 -1 -1 -1 -2 -2 -2 -2 -1 -1 -0 1 1 1 2 1 0 -0 -1 -1 -2 -3 -3 -4
-2 -2 -2 -2 -1 -1 -1 -0 -1 -2 -3 -3 -3 -3 -3 -2 -2 -2 -2 -2 -2 -1 -0 -0 -1 -2 -2 -1 -1 -1 -0 -0 -0 0 0 -0 -1 -2 -2 -3 -4 -4 -4 -4
-2 -3 -3 -3 -3 -2 -1 -1 -2 -3 -4 -4 -3 -3 -2 -2 -2 -2 -2 -2 -2 -1 -0 0 -0 -1 -1 -1 -1 -1 -1 -2 -2 -2 -2 -3 -3 -4 -4 -4 -4 -4 -4 -3
-2 -2 -2 -3 -3 -3 -3 -2 -2 -3 -4 -4 -3 -2 -2 -1 -2 -2 -2 -3 -2 -2 -1 -0 -0 -1 -1 -1 -1 -2 -3 -3 -4 -4 -4 -5 -5 -5 -4 -4 -3 -3 -2 -2
-2 -2 -2 -2 -3 -3 -3 -2 -2 -3 -3 -3 -2 -1 -1 -1 -1 -2 -3 -4 -3 -3 -2 -1 -1 -2 -2 -2 -2 -2 -3 -3 -3 -3 -4 -4 -3 -3 -2 -1 -1 -0 0 1
-2 -2 -2 -3 -3 -4 -3 -2 -1 -2 -2 -2 -1 -1 -1 -1 -1 -2 -4 -4 -4 -4 -3 -3 -2 -2 -2 -2 -2 -2 -2 -2 -2 -2 -2 -1 -1 0 1 1 1 2 2 2